DW5174 Weather Reports


Display with metric or nautical units.
time (UTC)temp
F
wind
direction
speed
MPH
gust
MPH
rain 1hr
in
rain 24hr
in
rain mn
in
humidity
%
barometer
mb
20181117110205 53 125 5.0 13.0 0.00 0.01 0.01 96 1024.1
20181117105705 53 81 4.0 13.0 0.00 0.01 0.01 96 1024.1
20181117105206 53 127 6.0 12.0 0.00 0.01 0.01 96 1024.0
20181117104705 53 82 1.0 10.0 0.00 0.01 0.01 95 1024.0
20181117104205 53 104 3.0 12.0 0.00 0.01 0.01 95 1024.1
20181117103704 53 71 3.0 12.0 0.00 0.01 0.01 95 1024.0
20181117103205 53 127 2.0 12.0 0.00 0.01 0.01 95 1023.9
20181117102705 53 127 0.0 11.0 0.00 0.01 0.01 95 1023.9
20181117102205 53 104 1.0 11.0 0.00 0.01 0.01 95 1023.9
20181117101705 53 130 2.0 11.0 0.00 0.01 0.01 95 1023.7
20181117101205 53 142 1.0 11.0 0.00 0.01 0.01 95 1023.7
20181117100705 53 123 8.0 12.0 0.00 0.01 0.01 95 1023.7
20181117100206 53 90 0.0 12.0 0.00 0.01 0.01 96 1023.7
20181117095705 53 118 2.0 13.0 0.00 0.01 0.01 96 1023.6
20181117095205 53 154 4.0 13.0 0.00 0.01 0.01 96 1023.7
20181117094705 53 130 0.0 13.0 0.00 0.01 0.01 96 1023.7
20181117094205 53 102 6.0 13.0 0.00 0.01 0.01 96 1023.7
20181117093705 53 91 6.0 16.0 0.00 0.01 0.01 96 1023.8
20181117093204 53 170 6.0 16.0 0.00 0.01 0.01 96 1023.7
20181117092704 53 132 7.0 14.0 0.00 0.01 0.01 96 1023.7
20181117092205 54 151 4.0 13.0 0.00 0.01 0.01 96 1023.6
20181117091705 54 130 6.0 13.0 0.00 0.01 0.01 96 1023.6
20181117091206 54 112 4.0 14.0 0.00 0.01 0.01 96 1023.6
20181117090705 54 127 3.0 14.0 0.00 0.01 0.01 96 1023.6
20181117090205 54 147 4.0 14.0 0.00 0.01 0.01 96 1023.5
20181117085206 54 98 8.0 13.0 0.00 0.01 0.01 96 1023.4
20181117084705 54 136 0.0 13.0 0.00 0.01 0.01 96 1023.4
20181117084206 54 137 8.0 13.0 0.00 0.01 0.01 96 1023.4
20181117083704 54 105 9.0 10.0 0.00 0.01 0.01 96 1023.4
20181117083204 54 112 6.0 10.0 0.00 0.01 0.01 96 1023.3
20181117082705 54 143 4.0 11.0 0.00 0.01 0.01 96 1023.3
20181117082205 54 125 5.0 18.0 0.00 0.01 0.01 96 1023.3
20181117081704 54 106 1.0 18.0 0.00 0.01 0.01 95 1023.3
20181117081204 54 172 8.0 18.0 0.00 0.01 0.01 95 1023.3
20181117080705 54 150 13.0 17.0 0.00 0.01 0.01 95 1023.1
20181117080205 54 112 3.0 14.0 0.00 0.01 0.01 95 1023.1
20181117075705 54 130 1.0 14.0 0.00 0.01 0.01 95 1023.0
20181117075206 54 123 7.0 14.0 0.00 0.01 0.01 95 1022.9
20181117074705 54 130 9.0 13.0 0.00 0.01 0.01 95 1022.8
20181117074205 54 118 6.0 13.0 0.00 0.01 0.01 95 1022.8
20181117073705 54 133 7.0 13.0 0.00 0.01 0.01 95 1022.7
20181117073205 54 126 4.0 13.0 0.00 0.01 0.01 95 1022.7
20181117072705 54 91 6.0 16.0 0.00 0.01 0.01 95 1022.7
20181117072205 54 130 8.0 16.0 0.00 0.01 0.01 96 1022.7
20181117071705 54 165 4.0 16.0 0.00 0.01 0.01 96 1022.7
20181117071205 54 85 2.0 10.0 0.00 0.01 0.01 96 1022.7
20181117070704 54 106 0.0 10.0 0.00 0.01 0.01 96 1022.6
20181117070205 54 143 6.0 10.0 0.00 0.01 0.01 96 1022.6
20181117065706 54 161 3.0 12.0 0.00 0.01 0.01 96 1022.7
20181117065205 54 133 4.0 12.0 0.00 0.01 0.01 96 1022.6
20181117064705 54 126 1.0 12.0 0.00 0.01 0.01 96 1022.4
20181117064205 54 118 2.0 12.0 0.00 0.01 0.01 96 1022.4
20181117063705 54 87 0.0 12.0 0.00 0.01 0.01 96 1022.3
20181117063205 54 116 7.0 14.0 0.00 0.01 0.01 96 1022.2
20181117062704 54 102 5.0 14.0 0.00 0.01 0.01 96 1022.2
20181117062206 54 115 8.0 14.0 0.00 0.01 0.01 96 1022.2
20181117061705 54 130 7.0 14.0 0.00 0.01 0.01 96 1022.1
20181117061204 54 129 8.0 14.0 0.00 0.01 0.01 96 1022.1
20181117060705 54 160 4.0 14.0 0.00 0.01 0.01 96 1022.1
20181117060205 54 132 2.0 14.0 0.00 0.01 0.01 96 1022.0
20181117055705 54 94 6.0 14.0 0.00 0.01 0.01 96 1022.0
20181117055206 54 142 9.0 13.0 0.00 0.01 0.01 96 1021.9
20181117054705 54 95 6.0 13.0 0.00 0.01 0.01 96 1021.8
20181117054205 54 139 6.0 13.0 0.00 0.01 0.01 96 1021.8
20181117053705 54 119 1.0 13.0 0.00 0.01 0.01 96 1021.7
20181117053205 54 120 8.0 18.0 0.00 0.01 0.01 96 1021.6
20181117052705 54 142 2.0 18.0 0.00 0.01 0.01 96 1021.6
20181117052206 55 139 6.0 18.0 0.00 0.01 0.01 96 1021.5
20181117051705 55 111 4.0 15.0 0.00 0.01 0.01 96 1021.5
20181117051205 55 122 7.0 16.0 0.00 0.01 0.01 96 1021.5
20181117050705 55 106 6.0 16.0 0.00 0.01 0.01 96 1021.6
20181117050205 55 154 4.0 19.0 0.00 0.01 0.01 95 1021.4
20181117045705 55 130 7.0 19.0 0.00 0.01 0.01 95 1021.4
20181117045205 55 130 3.0 19.0 0.00 0.01 0.01 95 1021.3
20181117044705 55 106 10.0 19.0 0.00 0.01 0.01 94 1021.3
20181117044205 55 106 6.0 19.0 0.00 0.01 0.01 94 1021.2
20181117043705 55 130 5.0 19.0 0.00 0.01 0.01 94 1021.2
20181117043205 55 241 8.0 20.0 0.00 0.01 0.01 94 1021.1
20181117042705 55 137 9.0 23.0 0.00 0.01 0.01 94 1021.2
20181117042205 55 120 8.0 23.0 0.00 0.01 0.01 94 1021.2
20181117041705 55 133 9.0 21.0 0.00 0.01 0.01 94 1021.1
20181117041205 55 133 9.0 24.0 0.00 0.01 0.01 95 1021.1
20181117040706 55 97 9.0 24.0 0.00 0.01 0.01 95 1021.1
20181117040205 55 122 9.0 27.0 0.00 0.01 0.01 95 1021.1
20181117035705 55 133 12.0 27.0 0.00 0.01 0.01 95 1021.1
20181117035205 55 130 8.0 27.0 0.00 0.01 0.01 95 1021.2
20181117034705 55 108 6.0 20.0 0.00 0.01 0.01 95 1021.3
20181117034205 55 135 6.0 20.0 0.00 0.01 0.01 95 1021.3
20181117033705 55 115 9.0 20.0 0.00 0.01 0.01 95 1021.2
20181117033205 55 94 8.0 23.0 0.00 0.01 0.01 95 1021.2
20181117032704 55 150 8.0 23.0 0.00 0.01 0.01 95 1021.3
20181117032205 55 164 8.0 23.0 0.00 0.01 0.01 95 1021.3
20181117031705 55 130 9.0 18.0 0.00 0.01 0.01 95 1021.4
20181117031205 55 82 7.0 19.0 0.00 0.01 0.01 95 1021.4
20181117030705 55 130 7.0 19.0 0.00 0.01 0.01 95 1021.4
20181117030205 55 133 4.0 19.0 0.00 0.01 0.01 96 1021.5
20181117025705 55 84 5.0 18.0 0.00 0.01 0.01 96 1021.4
20181117025205 55 130 6.0 18.0 0.00 0.01 0.01 96 1021.5
20181117024705 55 151 8.0 18.0 0.00 0.01 0.01 96 1021.5
20181117024205 55 113 13.0 16.0 0.00 0.01 0.01 96 1021.6
20181117023705 55 123 9.0 16.0 0.00 0.01 0.01 96 1021.5
20181117023205 55 139 6.0 16.0 0.00 0.01 0.01 96 1021.6
20181117022705 55 127 7.0 16.0 0.00 0.01 0.01 96 1021.6
20181117022204 55 99 8.0 16.0 0.00 0.01 0.01 96 1021.6
20181117021704 55 137 2.0 15.0 0.01 0.01 0.01 97 1021.6
20181117021205 55 118 5.0 17.0 0.01 0.01 0.01 97 1021.6
20181117020705 55 112 2.0 17.0 0.01 0.01 0.01 97 1021.6
20181117020205 55 161 0.0 17.0 0.01 0.01 0.01 97 1021.5
20181117015705 55 115 9.0 16.0 0.01 0.01 0.01 97 1021.5
20181117015205 55 170 2.0 16.0 0.01 0.01 0.01 96 1021.5
20181117014705 55 99 4.0 15.0 0.01 0.01 0.01 96 1021.5
20181117014205 55 119 5.0 15.0 0.01 0.01 0.01 96 1021.5
20181117013705 55 132 9.0 17.0 0.01 0.02 0.01 97 1021.5
20181117013205 55 130 1.0 17.0 0.01 0.02 0.01 97 1021.5
20181117012705 55 149 3.0 17.0 0.01 0.02 0.01 96 1021.4
20181117012205 55 130 4.0 17.0 0.01 0.02 0.01 96 1021.5
20181117011704 55 94 9.0 17.0 0.00 0.01 0.00 96 1021.4
20181117011206 55 118 3.0 17.0 0.00 0.01 0.00 96 1021.4
20181117010704 55 122 7.0 15.0 0.00 0.01 0.00 96 1021.4
20181117005705 55 123 7.0 15.0 0.00 0.01 0.00 96 1021.4
20181117005205 55 130 9.0 14.0 0.00 0.01 0.00 96 1021.3
20181117004705 55 133 8.0 14.0 0.00 0.01 0.00 96 1021.4
20181117004205 55 104 2.0 14.0 0.00 0.01 0.00 95 1021.4
20181117003705 55 116 5.0 14.0 0.00 0.01 0.00 95 1021.3
20181117003205 55 92 8.0 14.0 0.00 0.01 0.00 96 1021.3
20181117002705 55 116 7.0 16.0 0.00 0.01 0.00 96 1021.3
20181117002205 55 133 8.0 17.0 0.00 0.01 0.00 96 1021.3
20181117001704 55 125 6.0 17.0 0.00 0.01 0.00 96 1021.3
20181117001205 55 116 7.0 17.0 0.00 0.01 0.00 96 1021.3
20181117000704 55 150 7.0 15.0 0.00 0.01 0.00 96 1021.3
20181117000205 55 143 8.0 15.0 0.00 0.01 0.01 96 1021.3
20181116235705 55 130 9.0 21.0 0.00 0.01 0.01 96 1021.3
20181116235205 55 126 7.0 21.0 0.00 0.01 0.01 96 1021.3
20181116234705 55 115 7.0 20.0 0.00 0.01 0.01 97 1021.3
20181116234205 55 125 8.0 17.0 0.00 0.01 0.01 97 1021.2
20181116233705 55 92 7.0 17.0 0.00 0.01 0.01 98 1021.2
20181116233205 55 130 11.0 19.0 0.00 0.01 0.01 98 1021.3
20181116232705 55 92 11.0 19.0 0.00 0.01 0.01 98 1021.2
20181116232205 55 113 9.0 17.0 0.00 0.01 0.01 98 1021.3
20181116231704 55 106 11.0 14.0 0.00 0.01 0.01 98 1021.3
20181116231205 55 125 9.0 15.0 0.00 0.01 0.01 98 1021.3
20181116230705 55 130 7.0 15.0 0.00 0.01 0.01 98 1021.3
20181116230205 55 105 7.0 15.0 0.00 0.01 0.01 98 1021.4
20181116225704 55 146 1.0 13.0 0.00 0.01 0.01 98 1021.4
20181116225205 55 108 0.0 15.0 0.00 0.01 0.01 97 1021.3
20181116224705 55 130 2.0 15.0 0.00 0.01 0.01 97 1021.3
20181116224205 55 95 2.0 16.0 0.00 0.01 0.01 97 1021.4
20181116223705 55 113 4.0 16.0 0.00 0.01 0.01 97 1021.4
20181116223205 55 122 7.0 16.0 0.00 0.01 0.01 96 1021.5
20181116222705 56 122 1.0 14.0 0.00 0.01 0.01 96 1021.5
20181116222206 56 116 4.0 14.0 0.00 0.01 0.01 96 1021.5
20181116221705 56 139 3.0 14.0 0.00 0.01 0.01 96 1021.5
20181116221204 56 132 1.0 14.0 0.00 0.01 0.01 95 1021.5
20181116220704 56 147 5.0 16.0 0.00 0.01 0.01 94 1021.4
20181116220205 56 146 5.0 16.0 0.00 0.01 0.01 94 1021.4
20181116215705 56 144 7.0 14.0 0.00 0.01 0.01 94 1021.4
20181116215205 56 136 5.0 15.0 0.00 0.01 0.01 94 1021.4
20181116214705 56 130 8.0 15.0 0.00 0.01 0.01 94 1021.3
20181116214205 56 109 7.0 15.0 0.00 0.01 0.01 94 1021.3
20181116213705 56 130 5.0 13.0 0.00 0.01 0.01 94 1021.3
20181116213205 56 119 8.0 13.0 0.00 0.01 0.01 94 1021.3
20181116212705 56 115 6.0 13.0 0.00 0.01 0.01 95 1021.2
20181116212205 56 88 1.0 13.0 0.00 0.01 0.01 95 1021.2
20181116211704 56 101 8.0 13.0 0.00 0.01 0.01 95 1021.2
20181116211205 56 57 2.0 13.0 0.00 0.01 0.01 95 1021.1
20181116210705 56 129 7.0 13.0 0.00 0.01 0.01 95 1021.1
20181116210205 56 90 7.0 13.0 0.00 0.01 0.01 96 1021.1
20181116205705 56 119 7.0 13.0 0.00 0.01 0.01 96 1021.0
20181116205205 56 116 4.0 15.0 0.00 0.01 0.01 96 1021.1
20181116204705 56 113 6.0 15.0 0.00 0.01 0.01 95 1021.0
20181116204205 56 139 2.0 15.0 0.00 0.01 0.01 95 1020.9
20181116203704 56 147 7.0 12.0 0.00 0.01 0.01 95 1021.0
20181116203205 56 164 0.0 12.0 0.00 0.01 0.01 95 1020.9
20181116202705 56 130 1.0 12.0 0.00 0.01 0.01 95 1020.9
20181116202206 56 108 2.0 12.0 0.00 0.01 0.01 96 1021.0
20181116201705 55 109 4.0 11.0 0.00 0.01 0.01 96 1021.0
20181116201205 55 158 4.0 11.0 0.00 0.01 0.01 96 1021.0
20181116200704 55 111 6.0 10.0 0.00 0.01 0.01 95 1021.0
20181116200204 55 122 6.0 10.0 0.00 0.01 0.01 95 1021.1
20181116195705 55 132 5.0 11.0 0.00 0.01 0.01 94 1021.1
20181116195205 55 104 7.0 11.0 0.00 0.01 0.01 94 1021.1
20181116194704 55 130 4.0 11.0 0.00 0.01 0.01 95 1021.1
20181116194205 55 157 3.0 11.0 0.00 0.01 0.01 95 1021.0
20181116193704 55 133 3.0 10.0 0.00 0.01 0.01 95 1021.0
20181116193205 55 136 2.0 11.0 0.00 0.01 0.01 95 1021.1
20181116192705 55 151 0.0 11.0 0.00 0.01 0.01 95 1021.2
20181116192205 55 99 2.0 11.0 0.00 0.01 0.01 94 1021.1
20181116191705 55 120 1.0 12.0 0.00 0.01 0.01 94 1021.1
20181116191206 55 130 2.0 12.0 0.00 0.01 0.01 94 1021.1
20181116190704 55 137 4.0 12.0 0.00 0.01 0.01 94 1021.1
20181116190204 55 147 5.0 10.0 0.00 0.01 0.01 95 1021.1
20181116185705 55 133 4.0 11.0 0.00 0.01 0.01 95 1021.1
20181116185205 55 111 1.0 11.0 0.00 0.01 0.01 95 1021.1
20181116184705 55 139 4.0 17.0 0.00 0.01 0.01 95 1021.2
20181116184205 55 146 5.0 17.0 0.00 0.01 0.01 95 1021.2
20181116183704 55 143 2.0 17.0 0.00 0.01 0.01 96 1021.2
20181116183205 55 130 5.0 11.0 0.00 0.01 0.01 96 1021.2
20181116182705 55 130 0.0 11.0 0.00 0.01 0.01 96 1021.2
20181116182206 55 130 3.0 11.0 0.00 0.01 0.01 97 1021.3
20181116181705 55 105 0.0 9.0 0.00 0.01 0.01 97 1021.2
20181116181205 55 136 0.0 9.0 0.00 0.01 0.01 97 1021.2
20181116180704 55 136 0.0 11.0 0.00 0.01 0.01 96 1021.2
20181116180205 55 126 3.0 15.0 0.00 0.01 0.01 96 1021.2
20181116175705 55 127 1.0 15.0 0.00 0.01 0.01 96 1021.2
20181116175205 55 143 5.0 15.0 0.00 0.01 0.01 96 1021.2
20181116174705 55 153 10.0 14.0 0.00 0.01 0.01 96 1021.2
20181116174205 55 150 0.0 15.0 0.00 0.01 0.01 96 1021.2
20181116173705 55 123 2.0 15.0 0.00 0.01 0.01 96 1021.1
20181116173204 55 122 2.0 16.0 0.00 0.01 0.01 96 1021.1
20181116172705 55 130 9.0 19.0 0.00 0.01 0.01 95 1021.1
20181116172206 55 160 4.0 19.0 0.00 0.01 0.01 96 1021.1
20181116171705 55 158 6.0 16.0 0.00 0.01 0.01 96 1021.1
20181116171204 55 88 4.0 13.0 0.00 0.01 0.01 96 1021.0
20181116170704 55 115 8.0 17.0 0.00 0.01 0.01 96 1021.0
20181116170205 55 112 4.0 17.0 0.00 0.01 0.01 95 1021.0
20181116165704 55 158 5.0 19.0 0.00 0.01 0.01 95 1021.0
20181116165206 55 78 6.0 19.0 0.00 0.01 0.01 95 1021.0
20181116164704 55 130 4.0 19.0 0.00 0.01 0.01 95 1020.9
20181116164205 55 157 7.0 18.0 0.00 0.01 0.01 95 1020.8
20181116163705 55 113 4.0 18.0 0.00 0.01 0.01 94 1020.8
20181116163204 55 149 6.0 16.0 0.00 0.01 0.01 94 1020.8
20181116162704 55 113 8.0 16.0 0.00 0.01 0.01 95 1020.8
20181116162206 55 136 7.0 12.0 0.00 0.01 0.01 95 1020.8
20181116161704 55 143 3.0 16.0 0.00 0.01 0.01 95 1020.8
20181116161204 55 111 7.0 16.0 0.00 0.01 0.01 95 1020.7
20181116160705 55 144 6.0 16.0 0.00 0.01 0.01 95 1020.7
20181116160205 55 156 4.0 15.0 0.00 0.01 0.01 95 1020.7
20181116155704 55 92 6.0 20.0 0.00 0.01 0.01 95 1020.7
20181116155205 55 136 6.0 21.0 0.00 0.01 0.01 95 1020.6
20181116154705 55 130 8.0 21.0 0.00 0.01 0.01 94 1020.6
20181116154205 55 154 8.0 21.0 0.00 0.01 0.01 94 1020.5
20181116153704 55 150 11.0 19.0 0.00 0.01 0.01 94 1020.4
20181116153205 55 130 6.0 19.0 0.00 0.01 0.01 94 1020.5
20181116152704 55 130 6.0 19.0 0.00 0.01 0.01 94 1020.4
20181116152206 55 143 8.0 18.0 0.00 0.01 0.01 94 1020.4
20181116151704 55 133 9.0 18.0 0.00 0.01 0.01 94 1020.4
20181116151205 55 153 8.0 18.0 0.00 0.01 0.01 94 1020.4
20181116150705 55 144 7.0 18.0 0.00 0.01 0.01 94 1020.4
20181116150205 55 129 7.0 15.0 0.00 0.01 0.01 94 1020.5
20181116145704 55 130 4.0 15.0 0.00 0.01 0.01 94 1020.5
20181116145205 55 130 8.0 17.0 0.00 0.01 0.01 94 1020.4
20181116144705 55 147 7.0 17.0 0.00 0.01 0.01 94 1020.5
20181116144204 55 150 6.0 16.0 0.00 0.01 0.01 94 1020.5
20181116143705 55 132 4.0 14.0 0.00 0.01 0.01 94 1020.5
20181116143205 55 142 3.0 14.0 0.00 0.01 0.01 94 1020.6
20181116142704 55 112 4.0 14.0 0.00 0.01 0.01 94 1020.6
20181116142206 55 136 8.0 10.0 0.00 0.02 0.01 93 1020.6
20181116141705 55 130 5.0 14.0 0.00 0.02 0.01 93 1020.6
20181116141205 55 184 2.0 15.0 0.00 0.03 0.01 92 1020.7
20181116140704 55 130 2.0 15.0 0.00 0.03 0.01 92 1020.7
20181116140205 55 143 7.0 16.0 0.00 0.03 0.01 92 1020.7
20181116135704 55 151 5.0 17.0 0.00 0.03 0.01 91 1020.6
20181116135204 55 181 8.0 17.0 0.00 0.03 0.01 91 1020.6
20181116134705 55 156 8.0 19.0 0.00 0.03 0.01 91 1020.6
20181116134205 55 153 9.0 19.0 0.00 0.03 0.01 91 1020.6
20181116133705 55 120 7.0 19.0 0.00 0.03 0.01 92 1020.6
20181116133204 55 118 6.0 14.0 0.00 0.03 0.01 91 1020.6
20181116132704 55 175 6.0 14.0 0.00 0.03 0.01 91 1020.6
20181116132206 55 140 6.0 14.0 0.00 0.03 0.01 91 1020.6
20181116131704 55 142 5.0 17.0 0.00 0.03 0.01 91 1020.7
20181116131205 55 158 7.0 17.0 0.00 0.03 0.01 90 1020.7
20181116130704 55 129 8.0 19.0 0.00 0.03 0.01 90 1020.6
20181116130204 55 130 7.0 19.0 0.00 0.03 0.01 90 1020.6
20181116125705 55 97 6.0 18.0 0.00 0.03 0.01 90 1020.6
20181116125205 55 144 7.0 16.0 0.00 0.03 0.01 90 1020.7
20181116124705 55 127 5.0 17.0 0.00 0.03 0.01 91 1020.6
20181116124205 55 119 7.0 17.0 0.00 0.03 0.01 91 1020.6
20181116123705 55 133 6.0 17.0 0.00 0.03 0.01 91 1020.7
20181116123205 55 98 6.0 20.0 0.00 0.03 0.01 90 1020.7
20181116122704 55 130 9.0 20.0 0.00 0.03 0.01 91 1020.7
20181116122205 55 137 8.0 20.0 0.00 0.03 0.01 92 1020.6
20181116121705 55 125 8.0 16.0 0.00 0.03 0.01 92 1020.6
20181116121204 55 126 11.0 16.0 0.00 0.03 0.01 92 1020.6
20181116120705 55 139 7.0 16.0 0.00 0.03 0.01 94 1020.7
20181116120205 55 142 6.0 15.0 0.00 0.03 0.01 94 1020.7
20181116115705 55 160 9.0 21.0 0.00 0.03 0.01 94 1020.7
20181116115205 55 143 9.0 21.0 0.00 0.03 0.01 94 1020.8
20181116114706 55 160 7.0 20.0 0.00 0.03 0.01 94 1020.8
20181116114205 55 174 10.0 20.0 0.00 0.03 0.01 94 1020.9
20181116113705 55 139 6.0 18.0 0.00 0.03 0.01 94 1020.9
20181116113205 55 157 7.0 18.0 0.00 0.03 0.01 94 1020.9
20181116112705 55 147 6.0 18.0 0.00 0.03 0.01 95 1021.0
20181116112205 55 142 5.0 16.0 0.00 0.03 0.01 95 1021.0
20181116111704 55 154 6.0 16.0 0.00 0.03 0.01 96 1021.0
20181116111204 55 116 5.0 26.0 0.00 0.03 0.01 95 1020.9
20181116110705 55 174 8.0 26.0 0.00 0.03 0.01 94 1020.9